Location: Abraham Lincoln Continuation High School
(33.9711°N, 117.3662°W)
Time: 18:16:41
(UTC+00:00)

Cosmos 2026 Rocket - Visible Passes

Search period start: 15 January 2021 00:00
Search period end: 25 January 2021 00:00
Orbit: 939 x 1001 km, 82.9° (Epoch: 15 January)

Date Brightness Start Highest point End Pass type
(mag) Time Alt. Az. Time Alt. Az. Time Alt. Az.
15 Jan 5.2 03:35:39 10° S 03:38:25 29° S 03:38:25 29° S visible
16 Jan 5.4 02:16:43 10° SE 02:18:53 16° ESE 02:18:53 16° ESE visible
16 Jan 5.1 03:59:41 10° SSW 04:03:33 36° SW 04:03:33 36° SW visible
16 Jan 6.7 13:16:05 10° NE 13:19:10 14° ENE 13:22:15 10° E visible
17 Jan 4.4 02:38:49 10° SSE 02:44:11 36° E 02:44:11 36° E visible
17 Jan 5.7 04:24:30 10° SW 04:28:52 26° W 04:28:52 26° W visible
17 Jan 6.2 13:38:09 10° NNE 13:43:21 26° ENE 13:48:32 10° SE visible
18 Jan 3.8 03:01:53 10° S 03:07:52 68° E 03:09:45 45° NNE visible
18 Jan 6.5 04:50:37 10° WSW 04:53:40 14° WNW 04:54:27 14° WNW visible
18 Jan 5.2 14:01:16 10° N 14:07:21 47° E 14:13:27 10° SSE visible
19 Jan 5.4 01:44:07 10° ESE 01:47:07 14° E 01:50:07 10° NE visible
19 Jan 4.2 03:25:38 10° SSW 03:31:37 65° W 03:35:44 22° N visible
19 Jan 7.1 12:45:00 10° ENE 12:45:07 10° ENE 12:45:15 10° ENE visible
19 Jan 4.2 14:24:49 10° N 14:31:12 86° E 14:37:35 10° S visible
20 Jan 4.7 02:05:32 10° SE 02:10:31 27° E 02:15:34 10° NNE visible
20 Jan 5.3 03:50:05 10° SW 03:55:32 35° WNW 04:01:06 10° NNW visible
20 Jan 6.5 13:04:51 10° NNE 13:09:23 20° ENE 13:13:54 10° ESE visible
21 Jan 4.0 02:28:14 10° SSE 02:34:04 52° E 02:40:00 10° NNE visible
21 Jan 6.3 04:15:30 10° WSW 04:19:38 19° WNW 04:23:49 10° NNW visible
21 Jan 5.6 13:27:38 10° NNE 13:33:28 37° ENE 13:39:16 10° SE visible
22 Jan 3.9 02:51:42 10° S 02:57:45 85° W 03:03:57 10° N visible
22 Jan 4.5 13:51:02 10° N 13:57:22 67° E 14:03:42 10° SSE visible
23 Jan 5.1 01:32:26 10° SE 01:36:49 21° E 01:41:14 10° NE visible
23 Jan 4.9 03:15:50 10° SSW 03:21:37 45° W 03:27:31 10° N visible
23 Jan 6.7 12:31:48 10° NE 12:35:22 15° ENE 12:38:56 10° ESE visible
23 Jan 4.1 14:14:49 10° NNW 14:21:08 68° W 14:27:27 10° S visible
24 Jan 4.4 01:54:43 10° SSE 02:00:18 39° E 02:05:58 10° NNE visible
24 Jan 6.0 03:40:46 10° SW 03:45:38 25° WNW 03:50:34 10° NNW visible
24 Jan 6.0 12:54:08 10° NNE 12:59:32 28° ENE 13:04:54 10° SE visible
